Temp
18 19 17 16 16 16 16 15 15 15 15 15 15 14 14 14 14 13 13 13 13 14 14 14 14 14 14 13 14 13 14 14 14 14 14 15 15 15 15 14 14 12 12
19 19 17 16 16 16 16 16 16 15 15 15 15 14 14 13 13 13 12 12 13 13 13 14 13 13 13 13 13 13 13 13 14 14 14 14 14 14 14 13 13 12 13
18 17 18 16 16 16 16 15 15 15 15 15 14 14 14 13 13 12 12 13 13 13 13 13 13 13 14 13 13 13 13 13 14 14 14 13 12 13 13 13 13 13 13
18 16 16 16 16 16 15 15 15 15 15 14 14 13 13 13 13 13 13 13 13 14 14 14 13 13 13 13 13 13 13 14 14 13 12 12 12 13 14 13 13 12 12
18 18 16 16 15 15 15 15 15 15 15 14 13 13 13 13 13 13 13 13 13 14 14 14 14 14 14 14 14 13 13 13 13 12 12 12 13 12 14 14 13 12 13
19 18 17 15 15 15 15 15 15 16 15 14 14 14 13 13 13 13 13 13 13 14 14 14 14 13 13 13 13 13 13 13 13 13 12 12 12 13 13 14 14 14 13
19 18 17 16 15 15 15 15 15 15 15 14 14 14 13 13 13 13 13 13 13 13 13 13 13 13 13 13 13 13 13 13 13 13 13 12 12 12 13 13 13 13 13
18 17 15 16 15 15 15 15 15 15 15 14 14 13 13 13 13 13 13 13 13 13 13 13 13 13 13 13 13 13 13 13 13 12 13 12 12 12 13 13 13 13 13
18 17 16 15 15 15 15 15 15 15 15 14 13 13 13 13 13 13 13 13 13 13 13 13 13 13 13 13 13 13 13 13 13 13 12 12 12 12 12 12 13 13 13
18 17 17 16 16 16 15 15 15 15 15 15 14 13 13 13 13 13 13 13 13 13 13 13 13 12 12 12 12 13 13 12 12 12 12 12 12 12 12 12 13 13 13
17 17 17 16 15 15 14 15 15 14 15 15 14 14 14 13 13 13 13 13 13 13 13 13 12 12 12 12 12 12 12 12 12 12 12 12 12 12 11 12 12 12 11
18 17 17 17 16 15 15 14 14 13 15 15 15 15 14 13 12 12 14 13 13 13 12 12 12 12 12 12 11 12 11 12 11 11 11 12 12 11 10 11 12 11 10
18 18 17 17 17 15 14 14 14 14 13 13 13 13 13 12 13 13 14 13 13 12 12 12 12 12 12 12 12 12 13 13 12 11 11 11 11 10 10 10 11 10 10
19 18 17 17 16 15 15 14 15 15 14 14 13 13 13 13 13 13 13 12 11 12 12 12 12 12 12 12 12 12 12 12 11 10 9 11 11 10 9 10 10 9 10
20 19 17 17 16 16 15 14 15 15 15 14 13 13 13 13 13 13 13 11 12 12 12 12 12 11 11 12 12 12 12 10 10 9 9 10 10 10 9 9 10 9 9
20 19 18 17 16 16 16 16 16 16 15 14 14 13 13 13 13 12 12 12 12 12 12 12 12 11 12 12 12 11 11 10 10 9 8 9 9 9 9 9 9 9 9
20 20 19 17 16 16 15 16 16 15 15 14 14 13 13 13 13 13 12 13 12 12 12 12 12 12 12 12 11 10 10 10 10 8 8 7 8 9 9 9 9 9 9
20 20 19 18 17 16 16 16 16 16 15 14 14 13 13 13 13 13 13 12 12 12 12 12 12 11 11 11 11 10 9 9 9 8 8 7 7 7 8 8 8 8 8
20 19 19 18 17 17 16 16 16 16 15 14 14 13 12 13 13 13 13 12 12 12 11 12 12 11 11 11 11 10 9 9 7 7 6 7 7 7 7 7 8 7 8
20 19 19 18 17 17 17 16 16 15 15 14 13 13 14 14 13 13 12 12 12 11 12 11 11 11 11 10 10 10 10 9 8 7 6 6 5 7 7 7 6 6 6
18 18 18 18 18 17 16 16 15 15 14 13 13 14 14 14 13 12 12 12 11 11 11 11 11 10 10 10 10 9 8 8 8 6 5 5 5 5 5 4 4 5 6
18 18 18 18 17 17 16 16 15 14 13 13 13 14 13 13 13 12 11 11 11 11 11 11 10 10 10 9 9 7 8 8 7 7 6 6 5 5 4 4 5 5 5
17 17 17 18 17 16 16 15 13 13 13 12 12 13 13 12 12 11 11 11 11 11 11 10 10 9 8 8 8 7 7 8 7 6 6 5 5 4 4 4 4 3 3
17 17 17 17 17 16 15 14 15 16 14 12 12 12 13 12 12 11 11 11 11 11 10 10 10 9 8 7 6 6 6 5 4 4 5 4 4 4 3 2 3 3 3
17 17 16 16 16 15 15 13 13 13 11 12 12 12 12 11 11 11 10 10 10 10 10 10 9 8 8 7 6 5 4 3 3 2 2 3 3 3 2 1 1 0 0
15 16 16 15 14 14 13 13 13 12 11 12 12 12 11 11 10 11 9 9 10 10 9 9 8 8 7 6 6 5 4 3 3 2 2 1 1 1 1 1 0 1 -1
Height
1491 1490 1493 1495 1497 1499 1500 1502 1504 1505 1505 1505 1507 1509 1510 1511 1511 1512 1513 1513 1514 1516 1516 1517 1516 1516 1517 1518 1518 1519 1520 1520 1521 1521 1521 1521 1520 1519 1519 1519 1520 1523 1522
1490 1490 1493 1496 1498 1500 1501 1503 1504 1505 1506 1506 1506 1508 1510 1511 1511 1513 1513 1513 1513 1515 1516 1516 1517 1517 1518 1518 1519 1520 1520 1520 1521 1521 1521 1521 1520 1519 1519 1519 1520 1520 1521
1491 1492 1493 1496 1498 1500 1502 1504 1505 1506 1506 1507 1509 1509 1510 1511 1513 1514 1514 1514 1514 1515 1516 1517 1518 1518 1519 1520 1520 1520 1520 1520 1520 1520 1520 1522 1523 1520 1520 1519 1519 1520 1519
1493 1493 1495 1496 1499 1501 1503 1505 1505 1506 1507 1508 1510 1512 1512 1512 1513 1516 1515 1515 1515 1515 1515 1517 1518 1519 1520 1520 1520 1520 1520 1520 1521 1521 1523 1523 1523 1520 1519 1519 1519 1520 1520
1495 1496 1496 1497 1500 1502 1504 1505 1506 1507 1508 1510 1511 1513 1514 1514 1514 1515 1516 1517 1516 1516 1517 1518 1519 1519 1520 1521 1521 1521 1521 1521 1521 1521 1524 1523 1522 1520 1519 1519 1519 1519 1519
1495 1499 1496 1499 1500 1503 1505 1507 1507 1508 1508 1510 1512 1513 1515 1515 1516 1517 1517 1518 1518 1518 1519 1520 1520 1520 1521 1521 1521 1522 1522 1522 1522 1525 1525 1524 1522 1521 1520 1519 1519 1519 1519
1496 1497 1496 1499 1503 1504 1505 1507 1508 1509 1509 1510 1512 1514 1515 1516 1516 1518 1519 1519 1520 1520 1520 1521 1521 1521 1522 1522 1522 1522 1523 1522 1523 1525 1525 1524 1521 1521 1520 1520 1520 1519 1518
1494 1497 1496 1500 1502 1505 1506 1506 1508 1508 1509 1511 1512 1514 1515 1516 1517 1518 1519 1520 1521 1522 1522 1521 1521 1522 1523 1523 1523 1523 1523 1523 1523 1524 1524 1524 1522 1521 1520 1519 1519 1518 1517
1494 1496 1498 1499 1501 1504 1506 1506 1508 1508 1509 1511 1512 1514 1515 1517 1517 1518 1519 1520 1521 1522 1522 1523 1522 1523 1524 1523 1524 1523 1523 1523 1522 1525 1523 1523 1521 1520 1518 1518 1518 1517 1516
1493 1495 1498 1499 1500 1502 1503 1505 1507 1508 1509 1511 1512 1513 1516 1517 1518 1519 1519 1520 1521 1522 1523 1524 1524 1523 1524 1524 1523 1524 1523 1523 1524 1524 1524 1520 1519 1518 1516 1517 1516 1517 1514
1492 1494 1498 1499 1500 1501 1503 1503 1506 1507 1509 1510 1512 1513 1515 1518 1519 1519 1519 1520 1521 1522 1523 1524 1524 1524 1523 1523 1523 1523 1522 1523 1523 1522 1521 1519 1518 1517 1514 1514 1514 1515 1513
1491 1493 1494 1498 1499 1499 1501 1502 1504 1507 1507 1510 1511 1512 1514 1518 1519 1520 1519 1520 1521 1522 1523 1524 1524 1524 1524 1525 1523 1521 1521 1520 1521 1520 1517 1517 1517 1516 1513 1513 1512 1513 1511
1489 1491 1493 1496 1498 1497 1498 1500 1504 1507 1508 1510 1512 1512 1515 1516 1516 1518 1518 1520 1521 1521 1523 1523 1524 1523 1523 1523 1522 1520 1519 1518 1518 1518 1515 1514 1514 1514 1511 1510 1510 1510 1508
1487 1489 1491 1494 1496 1498 1497 1499 1502 1506 1507 1510 1510 1512 1513 1514 1516 1519 1520 1521 1520 1521 1522 1523 1523 1522 1522 1521 1519 1518 1517 1515 1515 1515 1512 1511 1511 1510 1509 1507 1508 1507 1506
1484 1486 1487 1490 1492 1496 1498 1499 1501 1504 1504 1508 1509 1510 1512 1514 1516 1518 1518 1518 1518 1520 1521 1522 1522 1521 1520 1519 1517 1515 1514 1514 1512 1512 1510 1508 1508 1508 1506 1504 1506 1505 1505
1481 1482 1485 1486 1487 1491 1494 1497 1500 1502 1502 1503 1506 1508 1509 1512 1514 1514 1515 1516 1518 1519 1520 1520 1520 1519 1517 1516 1514 1513 1512 1511 1509 1510 1510 1505 1506 1505 1504 1503 1503 1503 1502
1476 1479 1481 1483 1485 1487 1489 1493 1497 1498 1500 1500 1504 1505 1507 1509 1509 1511 1513 1515 1516 1517 1518 1517 1517 1517 1516 1514 1512 1510 1509 1509 1507 1508 1506 1505 1503 1503 1502 1502 1501 1500 1500
1472 1474 1476 1479 1481 1483 1486 1489 1493 1495 1497 1497 1501 1503 1505 1505 1507 1509 1511 1512 1514 1515 1516 1516 1516 1514 1513 1512 1510 1508 1507 1506 1504 1505 1503 1503 1502 1502 1500 1501 1499 1498 1497
1466 1468 1471 1473 1474 1478 1480 1484 1488 1491 1493 1494 1498 1500 1501 1502 1504 1506 1508 1510 1511 1512 1514 1514 1513 1512 1511 1510 1508 1506 1505 1503 1503 1502 1502 1501 1500 1500 1499 1497 1496 1494 1493
1458 1462 1465 1465 1467 1471 1475 1478 1482 1486 1488 1491 1494 1495 1497 1500 1501 1503 1506 1508 1508 1510 1512 1511 1511 1510 1509 1508 1506 1505 1502 1502 1501 1500 1501 1499 1499 1497 1496 1495 1493 1490 1488
1450 1453 1455 1459 1460 1463 1466 1469 1474 1476 1481 1485 1487 1489 1492 1496 1499 1501 1504 1505 1507 1509 1509 1509 1509 1508 1507 1506 1504 1503 1501 1501 1500 1499 1498 1498 1498 1495 1492 1492 1489 1486 1484
1441 1445 1449 1451 1454 1455 1458 1462 1467 1470 1473 1478 1480 1484 1488 1491 1495 1499 1501 1503 1505 1506 1507 1507 1507 1506 1505 1504 1503 1502 1503 1502 1499 1497 1498 1496 1495 1493 1490 1488 1485 1483 1480
1432 1435 1439 1443 1446 1447 1452 1456 1460 1462 1465 1468 1473 1478 1482 1486 1491 1494 1498 1500 1502 1504 1505 1505 1505 1505 1503 1502 1502 1503 1502 1501 1497 1495 1495 1494 1492 1491 1487 1484 1481 1478 1475
1424 1428 1431 1435 1438 1440 1444 1446 1447 1450 1454 1459 1466 1471 1477 1482 1486 1491 1495 1498 1499 1501 1502 1503 1503 1503 1502 1501 1499 1499 1499 1498 1498 1494 1493 1492 1491 1487 1484 1480 1477 1474 1470
1415 1419 1422 1428 1432 1433 1436 1440 1442 1447 1453 1457 1462 1468 1472 1478 1483 1487 1491 1494 1497 1498 1499 1500 1500 1500 1501 1500 1498 1497 1496 1494 1494 1493 1487 1486 1485 1483 1479 1476 1471 1468 1464
1407 1411 1413 1419 1425 1427 1430 1434 1437 1442 1446 1449 1456 1462 1468 1474 1479 1483 1487 1491 1493 1495 1496 1497 1497 1497 1497 1497 1496 1494 1493 1492 1491 1490 1486 1481 1478 1475 1473 1470 1466 1463 1459
Wind_Speed
13 14 14 13 8 9 9 8 7 6 6 6 8 7 4 2 2 3 6 7 6 4 3 1 4 10 7 6 5 4 5 7 8 9 11 12 11 9 8 8 5 5 9
17 15 15 12 10 9 8 7 5 4 2 4 6 6 5 3 2 3 4 5 1 6 7 5 9 11 8 6 2 2 5 7 8 8 8 8 8 6 4 3 2 4 7
18 17 16 15 12 11 8 7 5 2 2 7 11 10 9 4 1 0 3 4 4 3 7 7 4 2 3 3 4 6 7 7 7 6 8 9 7 9 6 4 4 3 3
18 17 17 16 13 10 7 6 4 3 8 12 12 7 3 5 5 5 6 7 6 5 5 8 7 6 7 6 6 6 5 4 4 7 9 4 4 12 8 6 4 5 4
16 15 17 17 16 10 6 6 4 5 10 11 9 4 10 14 12 9 9 9 9 8 7 5 4 2 1 2 1 1 2 4 6 11 6 7 7 10 9 7 5 4 3
16 15 18 17 14 10 7 5 4 5 11 12 10 12 11 10 8 7 7 7 7 7 7 6 6 5 5 5 5 6 7 7 8 6 6 8 8 10 10 8 7 6 6
16 15 15 17 13 10 8 6 4 5 9 13 11 10 8 6 5 4 4 4 4 4 5 5 5 5 5 6 7 7 7 7 10 4 6 6 8 11 10 10 8 8 9
17 14 14 16 13 10 8 7 5 6 8 10 12 12 9 6 3 4 3 1 1 2 3 5 5 5 5 5 5 7 8 9 7 8 7 10 11 12 10 10 10 10 11
15 15 12 15 15 11 8 7 6 5 7 11 14 14 10 7 3 7 6 2 1 1 2 4 4 3 3 4 6 8 9 9 8 6 6 6 10 9 8 9 11 13 14
15 15 15 15 15 14 12 10 7 7 7 12 13 12 10 8 5 6 4 4 2 3 2 2 2 3 5 7 8 8 9 8 6 6 5 10 10 10 10 11 12 13 13
14 15 16 15 16 14 13 12 10 9 9 11 13 12 11 6 6 4 6 3 3 3 1 1 3 5 8 6 8 10 8 5 6 5 7 10 10 9 9 11 11 13 13
15 17 17 19 16 17 15 14 11 10 10 9 11 12 11 9 8 10 7 5 4 3 2 2 4 6 5 4 8 10 6 8 6 7 12 11 10 9 10 13 12 12 12
15 16 17 17 18 20 18 17 13 11 9 10 10 10 11 11 13 10 6 4 3 4 2 3 6 7 9 11 12 9 12 11 8 7 15 12 10 10 12 14 12 12 12
16 17 18 18 18 17 19 17 15 15 13 12 12 13 12 11 9 8 5 10 6 5 3 4 6 11 13 12 12 13 13 13 10 9 15 12 11 11 14 13 11 11 13
18 18 18 19 20 18 17 15 14 15 15 14 13 13 12 12 11 9 11 8 6 4 4 8 8 11 13 13 15 15 13 10 10 8 13 12 10 11 13 12 11 12 13
19 18 18 20 20 19 19 17 16 16 16 19 15 16 15 13 13 14 11 9 7 5 7 8 11 13 13 14 14 14 12 9 9 9 6 13 11 11 13 13 12 13 14
18 19 19 20 20 21 20 19 17 17 17 20 16 16 16 16 18 12 10 7 7 8 9 9 11 11 13 13 12 13 11 10 9 8 7 8 12 10 11 12 11 12 13
20 19 20 21 21 20 20 19 19 18 18 21 18 18 18 18 13 11 12 10 7 9 10 10 9 10 11 12 12 10 11 11 9 8 9 8 9 10 13 13 16 19 19
27 24 22 23 23 23 23 22 21 20 22 23 21 21 22 17 15 14 13 10 9 10 10 7 7 8 9 11 11 10 12 12 9 8 7 10 12 14 14 18 17 19 19
31 28 25 24 24 22 22 24 22 24 25 24 24 23 21 19 17 16 15 13 10 9 8 5 6 7 8 10 11 9 12 8 7 7 7 9 10 16 17 19 19 18 22
34 33 31 29 27 25 26 27 28 31 30 33 29 27 24 22 20 19 17 15 11 10 7 5 5 7 9 11 10 9 8 10 9 8 9 7 12 15 16 13 18 20 22
31 32 31 31 28 27 27 28 29 32 35 36 33 30 27 25 23 21 19 16 13 10 7 5 5 8 10 11 10 8 3 5 6 6 8 18 10 14 12 18 22 22 21
34 34 34 33 31 29 27 27 29 35 41 40 36 35 32 29 25 23 20 17 14 11 7 5 5 6 9 11 10 4 3 3 14 7 10 10 14 13 19 24 24 23 23
36 35 34 33 32 31 31 32 36 40 42 42 39 37 33 31 29 25 21 19 15 11 8 5 6 7 8 10 11 9 5 8 3 8 4 11 16 18 21 24 26 25 28
33 35 33 31 30 30 35 30 34 36 31 38 37 36 34 33 29 25 23 19 15 12 8 6 7 8 9 9 10 10 8 9 8 10 20 13 20 20 23 22 22 28 24
30 29 33 34 31 30 31 37 36 31 32 39 41 40 36 34 30 25 24 20 16 12 8 7 8 9 10 11 11 12 10 8 9 11 18 24 25 26 21 25 24 24 22
Wind_Direction
154 167 167 158 166 150 151 151 162 181 193 197 201 209 209 228 305 332 312 284 266 239 213 267 112 119 127 163 192 223 278 294 293 296 299 303 305 301 290 283 294 18 279
155 167 166 163 162 152 140 139 132 135 173 198 174 176 173 187 212 33 327 355 315 202 201 224 94 117 129 145 167 266 297 297 304 309 315 331 344 347 336 346 353 223 267
151 162 167 163 160 154 148 145 141 133 138 146 140 158 179 187 186 12 335 29 55 150 201 215 229 161 178 276 302 306 307 314 323 345 21 32 329 324 321 317 352 327 288
150 163 163 165 167 156 155 156 142 114 124 124 138 155 164 222 223 134 84 68 68 91 165 214 226 250 247 260 274 292 302 331 14 35 31 344 14 313 315 302 322 352 338
155 161 183 164 172 174 169 168 154 139 143 137 155 148 133 114 111 92 70 61 65 74 92 130 171 213 239 270 288 26 38 34 39 41 348 325 11 316 339 318 302 310 295
156 161 194 177 176 185 189 184 165 147 158 160 152 140 132 112 101 89 73 59 62 72 80 88 92 84 74 60 41 26 29 22 37 10 356 339 3 347 352 358 343 325 311
158 176 193 182 192 195 191 188 170 155 165 182 166 161 151 149 143 111 57 57 65 81 85 84 81 77 74 68 60 44 27 18 37 9 343 338 311 334 344 351 346 344 335
164 169 175 178 181 194 194 186 175 159 162 169 180 178 170 168 178 176 164 104 76 78 84 92 94 87 74 51 28 7 356 345 357 317 314 328 306 320 330 331 326 314 309
169 167 177 181 181 204 208 189 181 164 165 167 165 171 170 175 168 166 181 202 199 125 121 111 96 70 30 8 349 343 342 347 32 319 341 303 300 330 327 308 312 306 305
174 172 179 182 192 205 211 196 188 179 171 179 182 179 171 177 164 168 191 214 202 179 142 109 57 3 352 339 333 338 346 9 4 342 336 287 313 319 314 298 301 307 306
181 181 181 191 189 196 199 196 194 189 180 184 190 189 186 168 179 184 190 207 201 203 202 345 343 341 345 354 339 336 348 332 343 318 289 302 316 315 304 302 310 306 307
192 192 190 188 192 196 203 208 200 201 193 188 194 195 181 187 193 188 214 213 218 225 256 318 339 327 352 331 321 338 324 326 337 318 285 303 303 295 295 293 303 305 301
204 201 198 195 191 199 194 204 192 202 193 192 190 193 188 192 206 205 211 224 257 237 282 326 326 307 308 308 311 316 319 321 311 305 286 300 290 276 277 290 299 294 292
207 205 201 200 197 204 197 197 187 198 192 201 199 195 194 184 183 182 177 201 196 233 273 297 289 303 309 315 316 316 316 316 307 292 291 297 288 277 275 288 296 285 291
214 208 205 199 200 199 206 202 199 205 198 202 202 197 189 187 185 180 198 193 216 224 256 284 291 307 307 312 313 314 314 309 303 292 284 295 284 279 280 289 294 292 295
217 213 208 206 204 201 203 207 206 209 204 199 201 198 189 190 187 191 196 235 221 257 261 269 290 301 307 313 314 315 313 306 306 290 251 289 283 280 284 291 293 294 296
222 218 214 213 209 207 207 207 211 212 207 206 201 198 189 190 205 211 215 221 247 256 255 276 292 302 314 320 321 319 315 304 301 287 274 252 292 280 283 290 295 300 303
227 220 218 214 211 213 211 212 212 213 211 215 199 196 190 205 204 213 216 223 256 256 263 277 295 316 327 326 328 317 315 309 295 273 272 269 267 282 295 288 294 297 298
231 227 222 215 212 211 211 212 214 214 214 213 201 195 199 204 207 209 217 224 232 245 255 270 304 322 329 329 330 321 306 300 275 263 257 273 283 281 292 297 305 302 300
232 230 224 217 214 211 212 210 210 211 215 209 195 198 205 207 207 213 215 222 233 237 243 272 309 327 336 339 335 326 316 310 278 268 260 281 292 297 293 299 306 310 310
231 229 224 220 217 210 206 203 204 206 208 208 207 207 206 210 212 211 213 219 224 218 238 269 305 329 338 347 353 338 324 322 308 274 279 283 286 302 298 304 305 304 308
230 229 224 221 217 209 211 206 202 202 206 206 210 205 207 210 210 211 215 217 212 218 231 257 307 327 338 353 1 9 330 278 324 312 278 283 292 285 292 295 297 303 302
231 227 225 221 217 209 202 194 189 200 205 210 206 201 205 206 209 209 211 217 206 217 229 257 302 333 335 342 355 15 329 297 296 305 299 278 292 289 291 300 305 304 304
233 229 223 221 214 208 198 198 215 219 215 213 206 202 201 203 204 205 207 207 207 217 229 259 301 326 339 331 340 336 306 275 301 305 267 294 290 288 303 298 299 302 304
236 229 221 217 210 202 206 201 212 212 210 210 198 196 197 198 200 208 203 201 207 219 234 266 297 319 329 324 325 320 309 306 290 271 294 294 286 290 287 296 293 299 301
235 229 217 212 208 201 199 205 213 207 201 205 199 195 194 197 200 205 197 202 209 221 239 269 296 315 321 321 319 315 306 296 278 281 285 290 295 301 297 290 293 306 300